Regional Weather Roundup
Issued by NWS

Home | Current Version | Previous Version | Text Only | Print | Product List | Glossary On
Versions: 1 2 3 4 5 6 7 8 9 10 11 12 13 14 15 16 17 18 19 20 21 22 23 24 25 26 27 28 29 30 31 32 33 34 35 36 37 38 39 40 41 42 43 44 45 46 47 48 49 50
000
ASUS43 KMPX 250510
RWRMN
WEATHER ROUNDUP FOR MINNESOTA
NATIONAL WEATHER SERVICE TWIN CITIES/CHANHASSEN MN
1200 AM CDT SAT OCT 25 2014


NOTE: "FAIR" INDICATES FEW OR NO CLOUDS BELOW 12,000 FEET WITH NO
SIGNIFICANT WEATHER AND/OR OBSTRUCTIONS TO VISIBILITY. N/A MEANS
CURRENT SKY AND/OR WEATHER CONDITIONS ARE NOT AVAILABLE.

MNZ060>063-068>070-250600-
   Twin Cities Metro

CITY           SKY/WX    TMP DP  RH WIND       PRES   REMARKS
TWIN CITIES    PTCLDY    58  46  64 W9        29.88R
ST PAUL        CLEAR     50  50 100 N5        29.89R
CRYSTAL        CLEAR     61  43  51 W8        29.87R
BLAINE         CLEAR     61  45  55 W9        29.88R
LAKEVILLE      CLEAR     59  46  63 W10       29.90R
EDEN PRAIRIE   CLEAR     57  45  64 W7        29.89R
SOUTH ST PAUL  CLEAR     59  49  70 W9        29.88R
LAKE ELMO      FAIR      54  50  87 W7        29.88R
$$
MNZ001>005-007-008-013>017-022>024-027-028-250600-
   Northwest Minnesota

CITY           SKY/WX    TMP DP  RH WIND       PRES   REMARKS
BEMIDJI        CLEAR     53  33  46 W15       29.86R
HALLOCK        CLEAR     48  34  57 W12       29.86R
ROSEAU         CLEAR     52  36  54 W13G18    29.81R
WARROAD        CLEAR     48  37  66 W13G20    29.80R
THIEF RVR FALL CLEAR     52  34  50 W15       29.88R
CROOKSTON      CLEAR     50  36  57 NW12      29.91R
FOSSTON        CLEAR     46  34  61 W8        29.90R
DETROIT LAKES  CLEAR     54  32  43 NW15G21   29.94R
MOORHEAD       PTCLDY    55  27  33 NW12      29.96R
PARK RAPIDS    CLEAR     55  32  41 NW16      29.88R
MAHNOMEN       FAIR      48  32  54 W12       29.92R
$$
MNZ006-009>011-018-025>026-250600-
   North Central Minnesota

CITY           SKY/WX    TMP DP  RH WIND       PRES   REMARKS
BAUDETTE       CLEAR     54  33  45 W12G26    29.77R
FLAG ISLAND    CLEAR     54  34  47 W24       29.73R
INTL FALLS     CLEAR     52  35  52 W8        29.74S
WASKISH        CLEAR     52  43  71 W12G18    29.81S
BIG FORK       CLEAR     55  34  44 W5        29.81R
LONGVILLE      CLEAR     57  32  38 W8G18     29.85R
GRAND RAPIDS   CLEAR     57  32  38 NW12      29.82R
CRANE LAKE     CLEAR     55  34  44 W5        29.75S
ORR            CLEAR     55  30  38 W10G18    29.74S
COOK           CLEAR     55  34  44 W15G21    29.77R
WALKER         FAIR      55  32  41 W10G20    29.86R
$$
MNZ012-019>021-037-250600-
   Northeast Minnesota

CITY           SKY/WX    TMP DP  RH WIND       PRES   REMARKS
DULUTH         PTCLDY    59  36  42 W17       29.77R
ELY            CLEAR     57  34  41 W10G22    29.73R
HIBBING        PTCLDY    58  33  39 NW14G23   29.78R
EVELETH        PTCLDY    57  32  38 W12G20    29.78R
DULUTH HARBOR  FAIR      57  48  72 S10       29.78R
TWO HARBORS    CLEAR     63  27  25 W10G16    29.72S
SILVER BAY     PTCLDY    61  37  41 W7G16     29.70S
GRAND MARAIS     N/A     45  43  93 W3        29.65S
G MARAIS ARPRT PTCLDY    54  36  50 W10G18    29.66S
$$
MNZ029>031-032-039>041-046>048-054>057-064-250600-
   West Central Minnesota

CITY           SKY/WX    TMP DP  RH WIND       PRES   REMARKS
FERGUS FALLS   MOCLDY    55  30  38 NW12      29.96R
WHEATON        MOCLDY    57  36  44 NW12G17   29.99R
MORRIS         PTCLDY    57  37  47 NW13      29.95R
ALEXANDRIA     MOCLDY    59  33  37 NW13      29.94R
ELBOW LAKE     FAIR      55  37  50 NW8       29.95R
WADENA         CLEAR     55  34  44 W7        29.91R
GLENWOOD       MOCLDY    59  34  38 NW13      29.94R
APPLETON       PTCLDY    59  37  44 NW8       29.96R
BENSON         PTCLDY    55  39  54 N7        29.95R
ORTONVILLE     MOCLDY    57  37  47 NW9       29.97R
MADISON        MOCLDY    61  43  51 NW8       29.98R
WILLMAR        FAIR      52  43  71 W6        29.96R
$$
MNZ033>034-036-042>043-049>051-058-059-250600-
   Central Minnesota

CITY           SKY/WX    TMP DP  RH WIND       PRES   REMARKS
ST CLOUD       CLEAR     61  40  45 NW10      29.89R
SAUK CENTRE    FAIR      57  37  46 NW9       29.92S
PAYNESVILLE    PTCLDY    55  38  52 W8        29.92S
AITKIN         CLEAR     61  34  36 W5        29.84R
PINE RIVER     CLEAR     57  36  44 W6        29.90R
BRAINERD       CLEAR     57  35  43 W9        29.88R
STAPLES        CLEAR     52  34  50 W8        29.90R
LONG PRAIRIE   FAIR      55  34  44 W7        29.92S
LITTLE FALLS   CLEAR     57  34  41 W6        29.90R
LITCHFIELD     CLEAR     63  39  42 NW10      29.93R
BUFFALO        CLEAR     58  43  57 W6        29.91R
MAPLE LAKE     PTCLDY    61  45  55 W9        29.91R
$$
MNZ037-044-045-052-053-250600-
   East Central Minnesota

CITY           SKY/WX    TMP DP  RH WIND       PRES   REMARKS
PRINCETON      CLEAR     55  45  67 W7        29.88R
MORA           CLEAR     54  41  62 W9        29.87R
CAMBRIDGE      CLEAR     61  45  55 W6        29.85R
RUSH CITY      MOCLDY    53  44  74 W6        29.86R
MOOSE LAKE     PTCLDY    54  39  58 W7        29.81R
HINCKLEY       FAIR      55  45  67 CALM      29.84R
CLOQUET        PTCLDY    55  36  47 W9        29.80R
MCGREGOR       CLEAR     57  37  47 W6        29.84R
$$
MNZ071>073-080-081-089-090-097-098-250600-
   Southwest Minnesota

CITY           SKY/WX    TMP DP  RH WIND       PRES   REMARKS
MONTEVIDEO     MOCLDY    57  43  58 N6        29.97R
GRANITE FALLS  PTCLDY    54  44  67 W8        29.98R
CANBY          CLOUDY    58  41  54 W9        30.00R
MARSHALL       MOCLDY    57  39  51 NW13      29.98R
REDWOOD FALLS  PTCLDY    58  42  55 NW9       29.96R
OLIVIA         PTCLDY    54  43  66 NW7       29.95R
PIPESTONE      PTCLDY    55  41  58 NW7       30.00R
WINDOM         CLEAR     48  39  71 W6        29.98R
WORTHINGTON    CLEAR     54  39  58 W6        30.00R
JACKSON        CLEAR     54  39  58 W6        29.99R
TRACY          PTCLDY    62  41  46 NW10      29.99R
SLAYTON        CLEAR     55  40  57 W6        30.01R
$$
MNZ065>067-074>077-082>085-091>093-250600-
   South Central Minnesota

CITY           SKY/WX    TMP DP  RH WIND       PRES   REMARKS
MANKATO        CLEAR     61  41  48 W12       29.93R
NEW ULM        CLEAR     54  43  66 W9        29.95R
ST JAMES       CLEAR     57  39  51 W9        29.96R
FAIRMONT       CLEAR     54   7  15 W10       29.95S
GLENCOE        CLEAR     59  45  59 W9        29.92R
FARIBAULT      CLEAR     48  46  93 SW3       29.92R
OWATONNA       CLEAR     54  46  76 SW7       29.92S
WASECA         CLEAR     45  39  81 SW6       29.94S
ALBERT LEA     CLEAR     52  48  87 CALM      29.93R
$$
MNZ078>079-086>088-094>096-250600-
   Southeast Minnesota

CITY           SKY/WX    TMP DP  RH WIND       PRES   REMARKS
ROCHESTER      CLEAR     50  49  96 SW7       29.92S FOG
RED WING       FOG       46  45  93 CALM      29.87R VSB<1/4
STANTON        CLEAR     49  46  89 SW5       29.89R
DODGE CENTER   PTCLDY    50  48  93 SW9       29.92R FOG
WINONA         MOCLDY    57  55  94 CALM      29.89S FOG
AUSTIN         FOG       46  46 100 CALM      29.93R VSB 1/4
PRESTON        FOG       54  53  98 SW3       29.92S VSB 1/4
$$
ABBREVIATIONS USED IN REMARKS
   TC - TEMPERATURES IN CELSIUS
  WCI - WIND CHILL INDEX
   HX - HEAT INDEX
  VSB - VISIBILITY
$$



USA.gov is the U.S. government's official web portal to all federal, state and local government web resources and services.